Time,TemperatureF,DewpointF,PressureIn,WindDirection,WindDirectionDegrees,WindSpeedMPH,WindSpeedGustMPH,Humidity,HourlyPrecipIn,Conditions,Clouds,dailyrainin,SoftwareType,DateUTC
2013-03-01 00:02:00,52.0,-99.9,30.43,South,177,2.0,3.0,-999,-99.99,,,-99.99,,2013-03-01 08:02:00,
2013-03-01 00:12:00,52.0,-99.9,30.43,SSW,205,3.0,4.0,-999,-99.99,,,-99.99,,2013-03-01 08:12:00,
2013-03-01 00:22:00,52.0,-99.9,30.43,South,186,3.0,4.0,-999,-99.99,,,-99.99,,2013-03-01 08:22:00,
2013-03-01 00:33:00,52.0,-99.9,30.43,South,185,3.0,4.0,-999,-99.99,,,-99.99,,2013-03-01 08:33:00,
2013-03-01 00:43:00,52.0,-99.9,30.43,SSE,168,3.0,4.0,-999,-99.99,,,-99.99,,2013-03-01 08:43:00,
2013-03-01 00:53:00,52.0,-99.9,30.43,South,184,2.0,4.0,-999,-99.99,,,-99.99,,2013-03-01 08:53:00,
2013-03-01 01:02:00,52.0,-99.9,30.43,SSW,194,2.0,4.0,-999,-99.99,,,-99.99,,2013-03-01 09:02:00,
2013-03-01 01:12:00,52.0,-99.9,30.44,SSW,196,2.0,3.0,-999,-99.99,,,-99.99,,2013-03-01 09:12:00,
2013-03-01 01:22:00,52.0,-99.9,30.44,South,190,0.0,2.0,-999,-99.99,,,-99.99,,2013-03-01 09:22:00,
2013-03-01 01:32:00,52.0,-99.9,30.44,South,175,1.0,2.0,-999,-99.99,,,-99.99,,2013-03-01 09:32:00,
2013-03-01 01:42:00,52.0,-99.9,30.44,South,191,1.0,1.0,-999,-99.99,,,-99.99,,2013-03-01 09:42:00,
2013-03-01 01:53:00,52.0,-99.9,30.44,South,187,0.0,1.0,-999,-99.99,,,-99.99,,2013-03-01 09:53:00,
2013-03-01 02:12:00,52.0,-99.9,30.44,SSE,155,0.0,1.0,-999,-99.99,,,-99.99,,2013-03-01 10:12:00,
2013-03-01 02:22:00,52.0,-99.9,30.44,SSE,168,2.0,2.0,-999,-99.99,,,-99.99,,2013-03-01 10:22:00,
2013-03-01 02:32:00,52.0,-99.9,30.44,SSE,160,0.0,1.0,-999,-99.99,,,-99.99,,2013-03-01 10:32:00,
2013-03-01 02:42:00,52.0,-99.9,30.43,South,170,1.0,1.0,-999,-99.99,,,-99.99,,2013-03-01 10:42:00,
2013-03-01 02:53:00,51.0,-99.9,30.43,WNW,298,2.0,3.0,-999,-99.99,,,-99.99,,2013-03-01 10:53:00,
2013-03-01 03:02:00,51.0,-99.9,30.43,NW,321,2.0,2.0,-999,-99.99,,,-99.99,,2013-03-01 11:02:00,
2013-03-01 03:12:00,51.0,-99.9,30.43,NNW,338,2.0,2.0,-999,-99.99,,,-99.99,,2013-03-01 11:12:00,
2013-03-01 03:42:00,51.0,-99.9,30.43,NW,305,4.0,4.0,-999,-99.99,,,-99.99,,2013-03-01 11:42:00,
2013-03-01 04:02:00,51.0,-99.9,30.42,NNW,333,4.0,4.0,-999,-99.99,,,-99.99,,2013-03-01 12:02:00,
2013-03-01 04:11:00,51.0,-99.9,30.42,NNW,340,3.0,3.0,-999,-99.99,,,-99.99,,2013-03-01 12:11:00,
2013-03-01 04:22:00,51.0,-99.9,30.42,NNW,347,3.0,3.0,-999,-99.99,,,-99.99,,2013-03-01 12:22:00,
2013-03-01 04:33:00,51.0,-99.9,30.42,North,8,3.0,4.0,-999,-99.99,,,-99.99,,2013-03-01 12:33:00,
2013-03-01 04:42:00,51.0,-99.9,30.42,ENE,75,2.0,4.0,-999,-99.99,,,-99.99,,2013-03-01 12:42:00,
2013-03-01 04:52:00,50.0,-99.9,30.42,NE,52,3.0,4.0,-999,-99.99,,,-99.99,,2013-03-01 12:52:00,
2013-03-01 05:01:00,50.0,-99.9,30.42,East,96,3.0,4.0,-999,-99.99,,,-99.99,,2013-03-01 13:01:00,
2013-03-01 05:12:00,50.0,-99.9,30.42,ENE,63,0.0,3.0,-999,-99.99,,,-99.99,,2013-03-01 13:12:00,
2013-03-01 05:22:00,50.0,-99.9,30.42,ENE,63,0.0,3.0,-999,-99.99,,,-99.99,,2013-03-01 13:22:00,
2013-03-01 05:32:00,51.0,-99.9,30.42,South,170,-999.0,2.0,-999,-99.99,,,-99.99,,2013-03-01 13:32:00,
2013-03-01 05:42:00,51.0,-99.9,30.42,SSE,150,0.0,1.0,-999,-99.99,,,-99.99,,2013-03-01 13:42:00,
2013-03-01 05:52:00,51.0,-99.9,30.42,ENE,76,2.0,3.0,-999,-99.99,,,-99.99,,2013-03-01 13:52:00,
2013-03-01 06:02:00,50.0,-99.9,30.41,NE,56,3.0,4.0,-999,-99.99,,,-99.99,,2013-03-01 14:02:00,
2013-03-01 06:12:00,50.0,-99.9,30.41,East,79,2.0,3.0,-999,-99.99,,,-99.99,,2013-03-01 14:12:00,
2013-03-01 06:22:00,50.0,-99.9,30.41,NE,56,2.0,4.0,-999,-99.99,,,-99.99,,2013-03-01 14:22:00,
2013-03-01 06:32:00,50.0,-99.9,30.41,NE,56,2.0,4.0,-999,-99.99,,,-99.99,,2013-03-01 14:32:00,
2013-03-01 06:52:00,50.0,-99.9,30.41,NNW,328,2.0,3.0,-999,-99.99,,,-99.99,,2013-03-01 14:52:00,
2013-03-01 07:02:00,50.0,-99.9,30.41,NW,317,2.0,3.0,-999,-99.99,,,-99.99,,2013-03-01 15:02:00,
2013-03-01 07:11:00,50.0,-99.9,30.41,NW,316,3.0,4.0,-999,-99.99,,,-99.99,,2013-03-01 15:11:00,
2013-03-01 07:21:00,49.0,-99.9,30.40,NNW,337,3.0,4.0,-999,-99.99,,,-99.99,,2013-03-01 15:21:00,
2013-03-01 07:32:00,49.0,-99.9,30.40,NNW,332,3.0,4.0,-999,-99.99,,,-99.99,,2013-03-01 15:32:00,
2013-03-01 07:42:00,49.0,-99.9,30.40,NNW,329,4.0,4.0,-999,-99.99,,,-99.99,,2013-03-01 15:42:00,
2013-03-01 07:52:00,50.0,-99.9,30.40,NW,315,0.0,2.0,-999,-99.99,,,-99.99,,2013-03-01 15:52:00,
2013-03-01 08:01:00,49.0,-99.9,30.40,NW,304,4.0,5.0,-999,-99.99,,,-99.99,,2013-03-01 16:01:00,
2013-03-01 08:11:00,49.0,-99.9,30.40,NW,319,3.0,4.0,-999,-99.99,,,-99.99,,2013-03-01 16:11:00,
2013-03-01 08:22:00,49.0,-99.9,30.40,North,356,2.0,2.0,-999,-99.99,,,-99.99,,2013-03-01 16:22:00,
2013-03-01 08:32:00,49.0,-99.9,30.40,North,350,1.0,3.0,-999,-99.99,,,-99.99,,2013-03-01 16:32:00,
2013-03-01 08:42:00,49.0,-99.9,30.40,WNW,297,2.0,3.0,-999,-99.99,,,-99.99,,2013-03-01 16:42:00,
2013-03-01 08:52:00,49.0,-99.9,30.40,NW,326,5.0,6.0,-999,-99.99,,,-99.99,,2013-03-01 16:52:00,
2013-03-01 09:01:00,49.0,-99.9,30.40,NW,324,7.0,8.0,-999,-99.99,,,-99.99,,2013-03-01 17:01:00,
2013-03-01 09:11:00,48.0,-99.9,30.40,NNW,328,7.0,8.0,-999,-99.99,,,-99.99,,2013-03-01 17:11:00,
2013-03-01 09:21:00,48.0,-99.9,30.40,NNW,327,8.0,10.0,-999,-99.99,,,-99.99,,2013-03-01 17:21:00,
2013-03-01 09:32:00,48.0,-99.9,30.40,NNW,328,9.0,10.0,-999,-99.99,,,-99.99,,2013-03-01 17:32:00,
2013-03-01 09:42:00,49.0,-99.9,30.40,NNW,334,9.0,11.0,-999,-99.99,,,-99.99,,2013-03-01 17:42:00,
2013-03-01 09:52:00,49.0,-99.9,30.39,NNW,343,7.0,8.0,-999,-99.99,,,-99.99,,2013-03-01 17:52:00,
2013-03-01 10:02:00,49.0,-99.9,30.39,NNW,333,5.0,6.0,-999,-99.99,,,-99.99,,2013-03-01 18:02:00,
2013-03-01 10:12:00,50.0,-99.9,30.39,NW,324,5.0,6.0,-999,-99.99,,,-99.99,,2013-03-01 18:12:00,
2013-03-01 10:22:00,50.0,-99.9,30.40,West,278,5.0,8.0,-999,-99.99,,,-99.99,,2013-03-01 18:22:00,
2013-03-01 10:32:00,51.0,-99.9,30.39,NW,321,7.0,8.0,-999,-99.99,,,-99.99,,2013-03-01 18:32:00,
2013-03-01 10:42:00,53.0,-99.9,30.39,North,352,7.0,9.0,-999,-99.99,,,-99.99,,2013-03-01 18:42:00,
2013-03-01 10:52:00,54.0,-99.9,30.39,NNW,332,7.0,8.0,-999,-99.99,,,-99.99,,2013-03-01 18:52:00,
2013-03-01 11:02:00,54.0,-99.9,30.38,NNW,333,8.0,9.0,-999,-99.99,,,-99.99,,2013-03-01 19:02:00,
2013-03-01 11:11:00,54.0,-99.9,30.38,NNW,330,9.0,9.0,-999,-99.99,,,-99.99,,2013-03-01 19:11:00,
2013-03-01 11:22:00,55.0,-99.9,30.37,NW,324,9.0,10.0,-999,-99.99,,,-99.99,,2013-03-01 19:22:00,
2013-03-01 11:52:00,57.0,-99.9,30.37,NNW,328,5.0,7.0,-999,-99.99,,,-99.99,,2013-03-01 19:52:00,
2013-03-01 12:01:00,58.0,-99.9,30.37,NW,322,5.0,5.0,-999,-99.99,,,-99.99,,2013-03-01 20:01:00,
2013-03-01 12:11:00,59.0,-99.9,30.36,NNW,329,5.0,6.0,-999,-99.99,,,-99.99,,2013-03-01 20:11:00,
2013-03-01 12:22:00,58.0,-99.9,30.36,NNW,327,5.0,7.0,-999,-99.99,,,-99.99,,2013-03-01 20:22:00,
2013-03-01 12:32:00,60.0,-99.9,30.35,North,354,7.0,8.0,-999,-99.99,,,-99.99,,2013-03-01 20:32:00,
2013-03-01 12:42:00,60.0,-99.9,30.35,NNW,339,7.0,9.0,-999,-99.99,,,-99.99,,2013-03-01 20:42:00,
2013-03-01 12:52:00,60.0,-99.9,30.34,NNW,344,5.0,7.0,-999,-99.99,,,-99.99,,2013-03-01 20:52:00,
2013-03-01 13:02:00,60.0,-99.9,30.33,NNW,345,2.0,5.0,-999,-99.99,,,-99.99,,2013-03-01 21:02:00,
2013-03-01 13:11:00,61.0,-99.9,30.33,NW,318,3.0,3.0,-999,-99.99,,,-99.99,,2013-03-01 21:11:00,
2013-03-01 13:22:00,62.0,-99.9,30.32,NW,313,3.0,6.0,-999,-99.99,,,-99.99,,2013-03-01 21:22:00,
2013-03-01 13:32:00,61.0,-99.9,30.32,WNW,288,5.0,6.0,-999,-99.99,,,-99.99,,2013-03-01 21:32:00,
2013-03-01 13:42:00,62.0,-99.9,30.31,NW,304,4.0,5.0,-999,-99.99,,,-99.99,,2013-03-01 21:42:00,
2013-03-01 13:52:00,60.0,-99.9,30.31,WNW,283,5.0,8.0,-999,-99.99,,,-99.99,,2013-03-01 21:52:00,
2013-03-01 14:01:00,59.0,-99.9,30.30,WNW,299,9.0,10.0,-999,-99.99,,,-99.99,,2013-03-01 22:01:00,
2013-03-01 14:12:00,60.0,-99.9,30.29,WNW,303,9.0,10.0,-999,-99.99,,,-99.99,,2013-03-01 22:12:00,
2013-03-01 14:22:00,60.0,-99.9,30.29,WNW,301,7.0,9.0,-999,-99.99,,,-99.99,,2013-03-01 22:22:00,
2013-03-01 14:32:00,62.0,-99.9,30.28,NW,306,6.0,8.0,-999,-99.99,,,-99.99,,2013-03-01 22:32:00,
2013-03-01 14:42:00,63.0,-99.9,30.28,NW,321,6.0,6.0,-999,-99.99,,,-99.99,,2013-03-01 22:42:00,
2013-03-01 14:52:00,62.0,-99.9,30.28,NW,320,6.0,8.0,-999,-99.99,,,-99.99,,2013-03-01 22:52:00,
2013-03-01 15:01:00,62.0,-99.9,30.27,NW,323,7.0,8.0,-999,-99.99,,,-99.99,,2013-03-01 23:01:00,
2013-03-01 15:11:00,62.0,-99.9,30.27,NNW,328,8.0,9.0,-999,-99.99,,,-99.99,,2013-03-01 23:11:00,
2013-03-01 15:21:00,62.0,-99.9,30.27,WNW,299,6.0,9.0,-999,-99.99,,,-99.99,,2013-03-01 23:21:00,
2013-03-01 15:32:00,64.0,-99.9,30.27,NW,317,6.0,7.0,-999,-99.99,,,-99.99,,2013-03-01 23:32:00,
2013-03-01 15:42:00,64.0,-99.9,30.27,NW,317,4.0,8.0,-999,-99.99,,,-99.99,,2013-03-01 23:42:00,
2013-03-01 15:52:00,65.0,-99.9,30.27,NW,317,6.0,7.0,-999,-99.99,,,-99.99,,2013-03-01 23:52:00,
2013-03-01 16:02:00,65.0,-99.9,30.27,NW,312,5.0,6.0,-999,-99.99,,,-99.99,,2013-03-02 00:02:00,
2013-03-01 16:12:00,66.0,-99.9,30.26,NW,323,7.0,7.0,-999,-99.99,,,-99.99,,2013-03-02 00:12:00,
2013-03-01 16:22:00,66.0,-99.9,30.26,NW,324,6.0,6.0,-999,-99.99,,,-99.99,,2013-03-02 00:22:00,
2013-03-01 16:32:00,67.0,-99.9,30.25,NW,323,7.0,7.0,-999,-99.99,,,-99.99,,2013-03-02 00:32:00,
2013-03-01 16:42:00,67.0,-99.9,30.25,NW,320,7.0,7.0,-999,-99.99,,,-99.99,,2013-03-02 00:42:00,
2013-03-01 16:52:00,67.0,-99.9,30.25,WNW,299,3.0,4.0,-999,-99.99,,,-99.99,,2013-03-02 00:52:00,
2013-03-01 17:01:00,67.0,-99.9,30.24,NW,307,3.0,5.0,-999,-99.99,,,-99.99,,2013-03-02 01:01:00,
2013-03-01 17:11:00,65.0,-99.9,30.24,West,259,3.0,4.0,-999,-99.99,,,-99.99,,2013-03-02 01:11:00,
2013-03-01 17:21:00,64.0,-99.9,30.24,West,278,4.0,5.0,-999,-99.99,,,-99.99,,2013-03-02 01:21:00,
2013-03-01 17:32:00,64.0,-99.9,30.24,West,269,3.0,4.0,-999,-99.99,,,-99.99,,2013-03-02 01:32:00,
2013-03-01 17:42:00,64.0,-99.9,30.24,East,96,0.0,3.0,-999,-99.99,,,-99.99,,2013-03-02 01:42:00,
2013-03-01 17:52:00,65.0,-99.9,30.24,SSE,149,0.0,1.0,-999,-99.99,,,-99.99,,2013-03-02 01:52:00,
2013-03-01 18:11:00,63.0,-99.9,30.24,SSE,159,0.0,2.0,-999,-99.99,,,-99.99,,2013-03-02 02:11:00,
2013-03-01 18:22:00,63.0,-99.9,30.24,SW,223,1.0,2.0,-999,-99.99,,,-99.99,,2013-03-02 02:22:00,
2013-03-01 18:32:00,61.0,-99.9,30.24,SE,135,3.0,4.0,-999,-99.99,,,-99.99,,2013-03-02 02:32:00,
2013-03-01 18:42:00,59.0,-99.9,30.24,SE,128,4.0,5.0,-999,-99.99,,,-99.99,,2013-03-02 02:42:00,
2013-03-01 18:52:00,60.0,-99.9,30.24,SE,136,1.0,2.0,-999,-99.99,,,-99.99,,2013-03-02 02:52:00,
2013-03-01 19:02:00,61.0,-99.9,30.25,South,170,0.0,2.0,-999,-99.99,,,-99.99,,2013-03-02 03:02:00,
2013-03-01 19:11:00,59.0,-99.9,30.25,SE,132,2.0,2.0,-999,-99.99,,,-99.99,,2013-03-02 03:11:00,
2013-03-01 19:22:00,58.0,-99.9,30.25,SE,124,4.0,5.0,-999,-99.99,,,-99.99,,2013-03-02 03:22:00,
2013-03-01 19:32:00,62.0,-99.9,30.25,ENE,69,1.0,4.0,-999,-99.99,,,-99.99,,2013-03-02 03:32:00,
2013-03-01 19:42:00,61.0,-99.9,30.25,NE,49,1.0,4.0,-999,-99.99,,,-99.99,,2013-03-02 03:42:00,
2013-03-01 19:53:00,62.0,-99.9,30.26,NNE,14,4.0,6.0,-999,-99.99,,,-99.99,,2013-03-02 03:53:00,
2013-03-01 20:02:00,62.0,-99.9,30.26,North,359,3.0,4.0,-999,-99.99,,,-99.99,,2013-03-02 04:02:00,
2013-03-01 20:12:00,58.0,-99.9,30.26,SW,221,3.0,4.0,-999,-99.99,,,-99.99,,2013-03-02 04:12:00,
2013-03-01 20:22:00,58.0,-99.9,30.26,South,175,3.0,5.0,-999,-99.99,,,-99.99,,2013-03-02 04:22:00,
2013-03-01 20:32:00,56.0,-99.9,30.27,SSE,158,4.0,6.0,-999,-99.99,,,-99.99,,2013-03-02 04:32:00,
2013-03-01 20:42:00,56.0,-99.9,30.27,SSE,150,3.0,5.0,-999,-99.99,,,-99.99,,2013-03-02 04:42:00,
2013-03-01 20:52:00,56.0,-99.9,30.27,SSE,148,2.0,4.0,-999,-99.99,,,-99.99,,2013-03-02 04:52:00,
2013-03-01 21:12:00,57.0,-99.9,30.26,East,100,3.0,5.0,-999,-99.99,,,-99.99,,2013-03-02 05:12:00,
2013-03-01 21:23:00,58.0,-99.9,30.26,NNE,15,4.0,4.0,-999,-99.99,,,-99.99,,2013-03-02 05:23:00,
2013-03-01 21:32:00,57.0,-99.9,30.26,NW,308,3.0,4.0,-999,-99.99,,,-99.99,,2013-03-02 05:32:00,
2013-03-01 21:42:00,56.0,-99.9,30.26,NNW,334,3.0,5.0,-999,-99.99,,,-99.99,,2013-03-02 05:42:00,
2013-03-01 21:52:00,56.0,-99.9,30.26,NW,318,0.0,1.0,-999,-99.99,,,-99.99,,2013-03-02 05:52:00,
2013-03-01 22:02:00,56.0,-99.9,30.26,NNW,333,0.0,2.0,-999,-99.99,,,-99.99,,2013-03-02 06:02:00,
2013-03-01 22:11:00,57.0,-99.9,30.26,NE,55,2.0,3.0,-999,-99.99,,,-99.99,,2013-03-02 06:11:00,
2013-03-01 22:22:00,56.0,-99.9,30.26,SW,235,2.0,3.0,-999,-99.99,,,-99.99,,2013-03-02 06:22:00,
2013-03-01 22:32:00,55.0,-99.9,30.26,West,274,3.0,4.0,-999,-99.99,,,-99.99,,2013-03-02 06:32:00,
2013-03-01 22:42:00,56.0,-99.9,30.26,SW,236,0.0,2.0,-999,-99.99,,,-99.99,,2013-03-02 06:42:00,
2013-03-01 22:52:00,56.0,-99.9,30.26,WNW,286,-999.0,0.0,-999,-99.99,,,-99.99,,2013-03-02 06:52:00,
2013-03-01 23:02:00,55.0,-99.9,30.26,East,85,1.0,2.0,-999,-99.99,,,-99.99,,2013-03-02 07:02:00,
2013-03-01 23:11:00,55.0,-99.9,30.26,ESE,105,3.0,4.0,-999,-99.99,,,-99.99,,2013-03-02 07:11:00,
2013-03-01 23:22:00,55.0,-99.9,30.25,East,95,4.0,6.0,-999,-99.99,,,-99.99,,2013-03-02 07:22:00,
2013-03-01 23:32:00,55.0,-99.9,30.25,East,79,3.0,5.0,-999,-99.99,,,-99.99,,2013-03-02 07:32:00,
2013-03-01 23:42:00,55.0,-99.9,30.25,NE,46,1.0,3.0,-999,-99.99,,,-99.99,,2013-03-02 07:42:00,
2013-03-01 23:52:00,54.0,-99.9,30.25,WNW,291,3.0,4.0,-999,-99.99,,,-99.99,,2013-03-02 07:52:00,